{"data":{"norad_id":69537,"intl_designator":"2026-128C","name":"ZHUQUE-2E R/B","alt_names":[],"object_type":"ROCKET_BODY","status":"UNKNOWN","operator":null,"country":"PRC","launch_date":"2026-06-09","launch_site_code":"JSC","launch_vehicle":null,"mission":null,"orbit_class":"UNKNOWN","rcs_meters":null,"size_class":null,"mass_kg":null,"dimensions":null,"purposes":[],"wikipedia_slug":null,"has_3d_model":false,"image_url":null,"decayed_at":null,"tle_current":{"epoch":"2026-07-08T22:15:27.124128Z","epoch_age_seconds":6391485,"freshness":"OLD","line1":"1 69537U 26128C   26189.92739727  .00047045  00000+0  42222-3 0  9995","line2":"2 69537  54.5271 201.0602 0066416  44.0872 316.5430 15.64969702  4628","mean_motion":15.64969702,"eccentricity":0.0066416,"inclination_deg":54.5271,"raan_deg":201.0602,"arg_perigee_deg":44.0872,"mean_anomaly_deg":316.543,"bstar":0.00042222,"rev_number":462,"period_min":92.014560931097,"perigee_km":328.48538146368,"apogee_km":418.166413423,"semimajor_km":6751.4628974433,"source":"CELESTRAK","updated_at":"2026-07-09T09:01:40.690784Z"}}}